Cross City, FL

5:02 AM EST on February 23, 2017 (GMT -0500)
Cross City

Weather History for KCTY - September, 2013

Change the Weather History Date:

Wednesday, September 25, 2013

  Actual Average Record
Temperature  
Mean Temperature 78 °F 77 °F  
Max Temperature 84 °F 87 °F 91 °F (1998)
Min Temperature 71 °F 66 °F 53 °F (2008)
Degree Days  
Heating Degree Days 0 0  
Month to date heating degree days 0 0  
Since 1 July heating degree days 0 0  
Cooling Degree Days 13 12  
Month to date cooling degree days 397 347  
Year to date cooling degree days 2442 2285  
Growing Degree Days 28 (Base 50)    
Moisture  
Dew Point 74 °F    
Average Humidity 92    
Maximum Humidity 100    
Minimum Humidity 74    
Precipitation  
Precipitation 0.43 in 0.11 in 0.90 in (2016)
Month to date precipitation 5.11 3.90  
Year to date precipitation 57.89 39.27  
Sea Level Pressure  
Sea Level Pressure 29.80 in    
Wind  
Wind Speed 4 mph (SW)    
Max Wind Speed 18 mph    
Max Gust Speed 23 mph    
T = Trace of Precipitation, MM = Missing Value Source: NWS Daily Summary

Daily Weather History Graph

Daily Weather History Graph

Search for Another Location

Airport or City:

Trip Planner

Search our weather history database for the weather conditions in past years. The results will help you decide how hot, cold, wet, or windy it might be!

Date:

Astronomy

Sep. 25, 2013 Rise Set
Actual Time 7:22 AM EDT 7:24 PM EDT
Civil Twilight 6:58 AM EDT 7:48 PM EDT
Nautical Twilight 6:31 AM EDT 8:16 PM EDT
Astronomical Twilight 6:03 AM EDT 8:44 PM EDT
Moon 11:53 PM EDT (9/25) 1:04 PM EDT (9/25)
Length of Visible Light 12h 49m
Length of Day
12h 02m
Waning Gibbous, 64% of the Moon is Illuminated
Sep 25
Waning Gibbous
Sep 26
Last Quarter
Oct 4
New
Oct 11
First Quarter
Oct 18
Full

Hourly Weather History & Observations

Time (EDT) Temp. Heat Index Dew Point Humidity Pressure Visibility Wind Dir Wind Speed Gust Speed Precip Events Conditions
12:53 AM 75.0 °F - 73.9 °F 96% 29.83 in - Calm Calm - 0.01 in   Unknown
1:53 AM 75.0 °F - 73.9 °F 96% 29.82 in - Calm Calm - 0.02 in   Unknown
2:53 AM 75.0 °F - 73.9 °F 96% 29.82 in - Calm Calm - N/A   Unknown
3:39 AM 71.6 °F - 71.6 °F 100% 29.80 in - WSW 11.5 mph - 0.03 in   Unknown
3:53 AM 71.1 °F - 70.0 °F 96% 29.80 in - West 10.4 mph - 0.04 in   Unknown
4:53 AM 71.1 °F - 70.0 °F 96% 29.77 in - West 10.4 mph - 0.06 in   Unknown
5:53 AM 72.0 °F - 70.0 °F 93% 29.79 in - SSW 4.6 mph - 0.01 in   Unknown
6:53 AM 71.1 °F - 71.1 °F 100% 29.78 in - East 4.6 mph - 0.04 in   Unknown
7:53 AM 71.1 °F - 71.1 °F 100% 29.81 in - Variable 3.5 mph - 0.07 in   Unknown
8:53 AM 72.0 °F - 71.1 °F 97% 29.82 in - Calm Calm - 0.01 in   Unknown
9:53 AM 73.0 °F - 72.0 °F 96% 29.83 in - Calm Calm - N/A   Unknown
10:53 AM 75.0 °F - 73.0 °F 94% 29.85 in - Calm Calm - N/A   Unknown
11:53 AM 78.1 °F - 73.9 °F 87% 29.85 in - Calm Calm - N/A   Unknown
12:53 PM 80.1 °F 83.8 °F 72.0 °F 76% 29.83 in - SW 9.2 mph - N/A   Unknown
1:53 PM 81.0 °F 86.2 °F 73.9 °F 79% 29.80 in - Variable 3.5 mph - N/A   Unknown
2:53 PM 82.0 °F 90.2 °F 77.0 °F 85% 29.78 in - West 6.9 mph - 0.01 in   Unknown
3:53 PM 82.9 °F 91.8 °F 77.0 °F 82% 29.76 in - WSW 12.7 mph - N/A   Unknown
4:53 PM 80.1 °F 85.8 °F 77.0 °F 90% 29.75 in - SSW 4.6 mph 18.4 mph 0.01 in   Unknown
5:53 PM 81.0 °F 88.6 °F 78.1 °F 91% 29.76 in - WSW 6.9 mph - 0.02 in   Unknown
6:53 PM 81.0 °F 88.6 °F 78.1 °F 91% 29.76 in - WSW 6.9 mph - N/A   Unknown
7:53 PM 79.0 °F - 77.0 °F 94% 29.77 in - SSE 3.5 mph - N/A   Unknown
8:53 PM 77.0 °F - 75.0 °F 94% 29.79 in - Variable 4.6 mph - 0.01 in   Unknown
9:53 PM 75.9 °F - 75.0 °F 97% 29.79 in - SE 3.5 mph - 0.09 in   Unknown
10:53 PM 75.9 °F - 75.0 °F 97% 29.79 in - Calm Calm - 0.03 in   Unknown
11:53 PM 75.9 °F - 75.0 °F 97% 29.78 in - South 4.6 mph - 0.01 in   Unknown